Location: Babice
(50.3480°N, 22.9363°E)
Time: 12:11:28
(UTC+00:00)

Cosmos 1763 Rocket - Pass Details

Date: 14 July 2020
Orbit: 732 x 781 km, 74.0° (Epoch: 07 August)

Event Time Altitude Azimuth Distance (km) Brightness Sun altitude
Rises 00:40:41 0° 338° (NNW) 3,236 7.3 -12.8°
Reaches altitude 10° 00:43:07 10° 344° (NNW) 2,314 6.6 -12.6°
Maximum altitude 00:48:15 50° 60° (ENE) 977 4.5 -12.2°
Drops below altitude 10° 00:53:23 10° 136° (SE) 2,324 5.9 -11.7°
Sets 00:55:50 0° 141° (SE) 3,251 6.6 -11.5°
